Время (UTC), дата Ветер
(°,м/с) 
Видим.   Явления Облачность Т
(°С)
Тd
(°С)
f(%) Тe
(°С)
Pmin
(гПа)
dP
(гПа)
Po
(мм)
O2
(г/м3)
Тmin Tmax R s Состояние
почвы
00 01.09.12 050 (СВ) >10 км    8/0 верхняя 
[Cc]
+6.9 +6.2 95 +8  1023.7  -0.4  743  291  +6.3         
03 01.09.12 230 (ЮЗ) >10 км    5/0 верхняя 
[Ci fib]
+16.2 +8.8 61 +18  1022.4  -0.2  742  281           
06 01.09.12 220 (ЮЗ) >10 км    9/0 верхняя 
[Ci fib]
+20.6 +8.1 45 +21  1020.6  -1.3  741  276           
09 01.09.12 270 (З) >10 км    9/4 600 м кучево-дожд., средняя, верхняя 
[Cb cap|Ac trans|Ci fib]
+21.2 +8.5 44 +21  1019.1  -1.4  740  275           
12 01.09.12 230 (ЮЗ) >10 км    9/6 2000 м средняя, верхняя 
[Ac trans|Ci fib]
+17.7 +10.4 62 +21  1018.4  -1  740  278    +22.3       
15 01.09.12 тихо ()   4000 м    8/3 2000 м средняя, верхняя 
[Ac trans|Ci fib]
+12.8 +9.3 79 +13  1018.3  -0.7  739  283           
18 01.09.12 250 (З) 4000 м    9/4 2000 м средняя, верхняя 
[Ac trans|Ci fib]
+10.2 +7.7 84 +11  1017.4  -1.1  738  285           
21 01.09.12 240 (ЮЗ) 4000 м    6/3 2000 м средняя, верхняя 
[Ac trans|Ci fib]
+8.1 +6.5 90 +9  1016.8  -0.9  738  288           
00 02.09.12 250 (З) >10 км    3/0 верхняя 
[Ci fib]
+7.4 +6.5 94 +8  1016.3  -0.6  737  288  +6.4        сухая 
06 02.09.12 070 (В) >10 км    6/3 2000 м средняя, верхняя 
[Ac trans|Ci fib]
+22.4 +11.3 49 +26  1012  -1.8  735  272           
09 02.09.12 050 (СВ) >10 км    8/6 2000 м средняя, верхняя 
[Ac trans|Ci fib]
+24.7 +11.2 43 +28  1011  -0.7  735  269           
12 02.09.12 250 (З) >10 км    9/3 2000 м средняя, верхняя 
[Ac trans|Ci fib]
+19.4 +11.7 61 +24  1011  -0.6  734  274    +25.5       
15 02.09.12 240 (ЮЗ) 4000 м    9/0 верхняя 
[Ci fib]
+14.3 +10.3 77 +18  1011  -0.5  734  279           
18 02.09.12 230 (ЮЗ) 4000 м    ясно 
+12.1 +10.2 88 +15  1010.2  -1.1  733  280           
21 02.09.12 240 (ЮЗ) 4000 м    ясно 
+9.9 +9.5 97 +12  1009.6  -0.8  733  283           
00 03.09.12 тихо ()   >10 км    ясно 
+9 +8.6 97 +9  1009  -0.7  732  284  +8.4        сухая 
03 03.09.12 020 (С) >10 км    9/0 верхняя 
[Ci]
+18.3 +11 62 +23  1007.2  -0.6  732  274           
06 03.09.12 250 (З) >10 км    9/0 верхняя 
[Ci]
+25.7 +12.8 45 +31  1004.2  -2.2  730  266           
09 03.09.12 240 (ЮЗ) >10 км    9/0 верхняя 
[Ci sp]
+26.3 +12.5 42 +32  1003.9  -0.2  730  266           
12 03.09.12 200 (Ю) >10 км    9/0 верхняя 
[Ci fib]
+23.3 +12.3 50 +28  1004.2  -0.1  730  269    +26.5       
15 03.09.12 тихо ()   4000 м    ясно 
+17.2 +11.8 71 +21  1004.5  -0.3  729  274           
18 03.09.12 тихо ()   4000 м    ясно 
+13.5 +11.1 85 +17  1004.2  -0.7  729  278           
21 03.09.12 тихо ()   4000 м    9/0 верхняя 
[Ci fib]
+11.2 +10.4 95 +13  1003.8  -0.6  728  280           
00 04.09.12 тихо ()   >10 км    9/6 600 м кучево-дожд., средняя, верхняя 
[Cb cap|Ac trans|Ci fib]
+11.7 +11 95 +15  1004.2  0.4  729  279  +10.5        сухая 
03 04.09.12 290 (З) >10 км    9/8 600 м кучево-дожд., средняя, верхняя 
[Cb cap|Ac trans|Ci fib]
+18.2 +11.2 64 +22  1006.1  2.6  731  274           
06 04.09.12 310 (СЗ) >10 км  в посл. час ливневой дождь  10/10 600 м кучево-дожд. 
[Cb cap]
+18.4 +10.9 62 +23  1008.5  2.3  732  274           
09 04.09.12 160 (Ю) >10 км  {ливн. осадки}  9/6 600 м кучево-дожд., средняя, верхняя 
[Cb cap|Ac trans|Ci fib]
+19.7 +11.3 58 +24  1009.3  0.9  733  273           
12 04.09.12 210 (ЮЗ) >10 км  {ливн. осадки}  9/8 600 м кучево-дожд., средняя 
[Cb cap|Ac trans]
+18.6 +12.9 69 +26  1009.8  0.4  733  274    +19.9  0.8     
15 04.09.12 230 (ЮЗ) 4000 м    9/4 2000 м средняя, верхняя 
[Ac lent|Ci fib]
+15.5 +12.2 81 +21  1010.9  0.7  734  277           
18 04.09.12 220 (ЮЗ) 4000 м    9/8 600 м кучево-дожд., средняя 
[Cb cap|Ac lent]
+12.4 +11.1 92 +17  1011.5  0.1  734  281           
21 04.09.12 120 (ЮВ) 4000 м    8/3 600 м кучево-дожд., средняя, верхняя 
[Cb cap|Ac trans|Ci fib]
+11.1 +10.2 94 +14  1011.5  -0.1  734  282           
00 05.09.12 260 (З) 0500 м  туман  9/6 600 м кучево-дожд., средняя, верхняя 
[Cb cap|Ac trans|Ci fib]
+9.8 +9.4 97 +12  1011.9  0.3  734  284  +9.5         
03 05.09.12 тихо ()   >10 км  в посл. час туман  9/8 600 м кучево-дожд., средняя 
[Cb cap|Ac trans]
+13.7 +12.6 93 +19  1010.4  -1  733  279           
06 05.09.12 060 (СВ) >10 км  {туман}  9/6 600 м кучево-дожд., средняя 
[Cb cap|Ac trans]
+18 +13.4 74 +26  1008.1  -1.7  732  274           
09 05.09.12 тихо ()   >10 км  гроза без осадков  10/10 600 м кучево-дожд. 
[Cb cap]
+18.9 +13.8 72 +26  1005.3  -2.6  730  272           
12 05.09.12 230 (ЮЗ) >10 км  в посл. час ливневой дождь{гроза}  8/3 600 м кучево-дожд., средняя 
[Cb cap|Ac trans]
+14.1 +13 93 +21  1007  1.2  731  277    +19.7     
15 05.09.12 230 (ЮЗ) 4000 м  {ливн. осадки}  8/4 600 м кучево-дожд., средняя 
[Cb cap|Ac trans]
+10.1 +8.5 90 +10  1010.7  733  283           
18 05.09.12 230 (ЮЗ) 4000 м  {ливн. осадки}  6/3 600 м кучево-дожд., средняя 
[Cb cap|Ac trans]
+8.8 +7.1 89 +8  1011.4  0.6  734  285           
21 05.09.12 240 (ЮЗ) 4000 м    4/0 верхняя 
[Ci fib]
+8.9 +6.5 85 +8  1012.7  1.2  735  286           
00 06.09.12 220 (ЮЗ) >10 км  {ливн. осадки}  9/8 600 м кучево-дожд., средняя 
[Cb cap|Ac trans]
+9.4 +6.7 83 +9  1013.1  0.5  735  285  +8.3       
03 06.09.12 240 (ЮЗ) >10 км  {ливн. осадки}  8/8 600 м кучево-дожд. 
[Cb cap]
+12.1 +7.6 74 +12  1013.3  0.4  735  282           
06 06.09.12 300 (СЗ) >10 км  {ливн. осадки}  10/10 600 м кучево-дожд. 
[Cb cap]
+12.5 +5.9 64 +13  1013.9  0.7  736  283           
09 06.09.12 290 (З) >10 км  {ливн. осадки}  10/10 600 м кучево-дожд. 
[Cb cap]
+14.9 +5.5 53 +16  1013.8  0.2  736  280           
12 06.09.12 тихо ()   >10 км  {ливн. осадки}  10/10 600 м кучево-дожд. 
[Cb cap]
+12.3 +6.7 69 +12  1015.1  0.8  737  283    +15.4  0.0     
15 06.09.12 290 (З) 4000 м    3/3 600 м кучево-дожд. 
[Cb cap]
+9.3 +4.3 71 +10  1016.4  737  287           
18 06.09.12 240 (ЮЗ) 4000 м    4/3 600 м кучево-дожд., средняя 
[Cb cap|Ac lent]
+8.6 +4.5 75 +9  1017.8  1.3  738  288           
21 06.09.12 240 (ЮЗ) 4000 м    6/6 2000 м средняя 
[Ac trans]
+8.3 +4.6 78 +8  1018.1  0.1  738  288           
00 07.09.12 220 (ЮЗ) >10 км  в посл. час ливневой дождь  6/4 600 м кучево-дожд., средняя 
[Cb cap|Ac trans]
+8 +4.8 80 +7  1019.3  1.2  739  289  +7.4    0.0     
03 07.09.12 220 (ЮЗ) >10 км  в посл. час ливневой дождь  9/6 600 м кучево-дожд., средняя 
[Cb cap|Ac trans]
+12.2 +7.3 72 +12  1019.9  0.7  740  284           
06 07.09.12 280 (З) >10 км  {ливн. осадки}  9/8 600 м кучево-дожд., средняя 
[Cb cap|Ac trans]
+13.3 +4.1 54 +14  1019.4  740  284           
09 07.09.12 290 (З) >10 км    8/8 600 м кучево-дожд. 
[Cb cap]
+15 +3 44 +16  1018.9  -0.2  740  282           
12 07.09.12 230 (ЮЗ) >10 км    9/8 1000 м средняя, верхняя 
[Sc diur, vesp|Ac trans|Ci fib]
+12 +5.6 65 +12  1019.2  -0.1  740  285    +15.4  0.0     
15 07.09.12 240 (ЮЗ) 4000 м    ясно 
+6.8 +3.8 81 +7  1020.1  0.3  740  290           
18 07.09.12 250 (З) 4000 м    ясно 
+5.8 +3.9 88 +7  1020.2  740  291           
21 07.09.12 210 (ЮЗ) 4000 м    ясно 
+2.6 +1.8 94 +3  1020.7  740  295           
00 08.09.12 тихо ()   >10 км    8/0 верхняя 
[Ci fib]
+1.6 +1.3 98 +2  1021.5  0.7  740  296  +1.1         
03 08.09.12 070 (В) >10 км    4/0 верхняя 
[Ci fib]
+10 +5.1 72 +11  1020.6  0.2  741  287           
06 08.09.12 130 (ЮВ) >10 км    8/4 600 м кучево-дожд., верхняя 
[Cb cap|Ci fib]
+14.6 +3.6 48 +15  1020.8  0.6  741  283           
09 08.09.12 050 (СВ) >10 км    9/8 600 м кучево-дожд., верхняя 
[Cb cap|Ci fib]
+15.5 +4.1 47 +16  1020.4  -0.3  741  282           
12 08.09.12 230 (ЮЗ) >10 км    8/5 600 м кучево-дожд., верхняя 
[Cb cap|Ci fib]
+12 +5.8 66 +13  1021.7  0.9  741  285    +15.9       
15 08.09.12 230 (ЮЗ) 4000 м    ясно 
+7.3 +4.3 81 +7  1023.2  0.9  742  291           
18 08.09.12 220 (ЮЗ) 4000 м    ясно 
+4.9 +3.5 91 +6  1024.4  743  293           
21 08.09.12 тихо ()   4000 м    ясно 
+3.1 +2.3 94 +3  1025.9  1.1  744  296           
00 09.09.12 тихо ()   >10 км    6/0 верхняя 
[Ci fib]
+2 +1.7 98 +2  1027.2  1.2  745  298  +1.7         
03 09.09.12 070 (В) >10 км    3/0 верхняя 
[Ci fib]
+11 +5.6 69 +12  1026.7  0.6  745  288           
06 09.09.12 120 (ЮВ) >10 км    3/0 верхняя 
[Ci fib]
+16.6 +4.5 45 +17  1025.9  -0.1  745  282           
09 09.09.12 070 (В) >10 км    3/0 верхняя 
[Ci fib]
+18.1 +5.9 45 +19  1025.4  -0.4  745  280           
12 09.09.12 240 (ЮЗ) >10 км    9/0 верхняя 
[Ci fib]
+14.1 +8.1 67 +15  1026  0.2  745  284    +18.7       
15 09.09.12 230 (ЮЗ) 4000 м    4/0 верхняя 
[Ci fib]
+8.8 +6.4 85 +10  1027.3  0.6  745  290           
18 09.09.12 240 (ЮЗ) 4000 м    3/0 верхняя 
[Ci fib]
+6.6 +5.2 91 +8  1028  0.4  746  292           
21 09.09.12 тихо ()   4000 м    ясно 
+4.4 +3.7 95 +4  1028.4  746  295           
00 10.09.12 230 (ЮЗ) >10 км    ясно 
+3.2 +2.7 96 +4  1029.3  0.8  746  297  +3         
03 10.09.12 070 (В) >10 км    ясно 
+12.1 +7.4 73 +13  1029.1  0.9  747  287           
06 10.09.12 120 (ЮВ) >10 км    8/0 верхняя 
[Ci fib]
+17.8 +7.6 51 +19  1027.3  -1.1  746  281           
09 10.09.12 070 (В) >10 км    4/0 верхняя 
[Ci fib]
+20.3 +5.6 38 +20  1026  -1.1  745  279           
12 10.09.12 250 (З) >10 км    4/0 верхняя 
[Ci fib]
+14.8 +8 64 +15  1025.9  -0.5  745  283    +20.5       
15 10.09.12 000 (С) 94  <0100 м    1/1 <0100 м 
+6.1   1026.4  -0.2  745             
18 10.09.12 240 (ЮЗ) 4000 м    ясно 
+7 +5 87 +8  1026.3  -0.4  744  292           
21 10.09.12 250 (З) 4000 м    ясно 
+5.5 +3.8 89 +6  1025.9  -0.6  744  293           
00 11.09.12 230 (ЮЗ) 10 км    3/0 верхняя 
[Ci fib]
+4.4 +4.2 99 +5  1026.1  744  294  +3.8         
03 11.09.12 090 (В) >10 км    4/0 верхняя 
[Ci fib]
+10.7 +6.4 75 +12  1024.6  -0.6  743  287           
06 11.09.12 040 (СВ) >10 км    3/0 верхняя 
[Ci fib]
+18.1 +8.2 52 +20  1022.5  -1.2  743  279           
09 11.09.12 070 (В) >10 км    ясно 
+21.8 +7.3 39 +22  1020  -2.1  741  275           
12 11.09.12 120 (ЮВ) >10 км    3/0 верхняя 
[Ci fib]
+16.8 +8.9 60 +18  1020.7  -0.4  741  280    +22.5       
15 11.09.12 240 (ЮЗ) 4000 м    3/0 верхняя 
[Ci fib]
+11.9 +8.5 80 +13  1020.2  -0.4  740  284           
18 11.09.12 250 (З) 4000 м    ясно 
+9.7 +7.4 86 +10  1019.1  -1.3  739  286           
21 11.09.12 260 (З) 4000 м    ясно 
+7 +6.1 94 +8  1018.6  -0.9  739  289           
00 12.09.12 250 (З) >10 км    3/0 верхняя 
[Ci fib]
+5.6 +5.1 97 +6  1018.2  -0.5  738  291  +5.6         
03 12.09.12 080 (В) >10 км    ясно 
+12.6 +8 74 +14  1016.7  -0.6  738  283  +5.3         
06 12.09.12 130 (ЮВ) >10 км    ясно 
+20.3 +9.7 51 +21  1014.9  -0.9  737  275           
09 12.09.12 050 (СВ) >10 км    ясно 
+24.4 +9.7 39 +26  1013.5  -0.9  737  271           
12 12.09.12 230 (ЮЗ) >10 км    ясно 
+17.7 +11.7 68 +23  1013.7  -0.6  736  276    +25.5       
15 12.09.12 240 (ЮЗ) 4000 м    ясно 
+13.3 +10 80 +16  1013.9  -0.2  736  281           
18 12.09.12 240 (ЮЗ) 4000 м    ясно 
+11.4 +8.8 84 +12  1013.5  -0.6  736  283           
21 12.09.12 240 (ЮЗ) 4000 м    ясно 
+8.8 +8 95 +10  1013.4  -0.4  735  286           
00 13.09.12 тихо ()   >10 км    3/3 2000 м средняя 
[Ac lent]
+7 +6.5 97 +7  1013.2  -0.5  735  288  +6.6         
03 13.09.12 070 (В) >10 км    4/4 2000 м средняя 
[Ac lent]
+14.9 +9.9 72 +17  1011.8  -0.4  735  279           
06 13.09.12 280 (З) >10 км    8/4 2000 м средняя, верхняя 
[Ac trans|Ci fib]
+23.2 +11.9 49 +27  1009.9  -0.9  734  270           
09 13.09.12 210 (ЮЗ) >10 км    6/3 2000 м средняя, верхняя 
[Ac trans|Ci fib]
+27 +9.5 33 +28  1008.5  -1  733  267           
12 13.09.12 220 (ЮЗ) >10 км    9/6 2000 м средняя, верхняя 
[Ac trans|Ci fib]
+21.7 +11.1 51 +25  1008.8  -0.3  733  272    +27.2       
15 13.09.12 220 (ЮЗ) 4000 м    6/0 верхняя 
[Ci fib]
+17.2 +10.6 65 +20  1009.6  0.4  733  276           
18 13.09.12 250 (З) 4000 м    10/3 2000 м средняя, верхняя 
[Ac lent|Cs]
+15.4 +10.7 74 +20  1010.1  0.3  733  278           
21 13.09.12 240 (ЮЗ) 4000 м    10/5 2000 м средняя, верхняя 
[Ac lent|Cs]
+16.9 +11.8 72 +22  1009.9  -0.1  733  276           
00 14.09.12 230 (ЮЗ) >10 км    9/5 1000 м верхняя 
[Sc|Ci fib]
+13.7 +10.6 82 +16  1010  -0.3  733  279  +13.6         
03 14.09.12 320 (СЗ) >10 км    9/5 2000 м средняя, верхняя 
[Ac trans|Ci fib]
+19.3 +12.3 64 +26  1008.6  -0.7  733  273           
06 14.09.12 240 (ЮЗ) >10 км    9/8 600 м кучево-дожд., средняя 
[Cb cap|Ac trans]
+21.1 +11.4 54 +25  1007.3  -1.1  732  272           
09 14.09.12 тихо ()   >10 км  {ливн. осадки}  9/8 600 м кучево-дожд., средняя 
[Cb cap|Ac trans]
+21 +12.5 58 +26  1006.9  -0.3  732  271           
12 14.09.12 270 (З) >10 км  {ливн. осадки}  9/3 2000 м средняя, верхняя 
[Ac trans|Ci fib]
+17.5 +13 75 +25  1008.2  0.7  732  275    +22  0.0     
15 14.09.12 230 (ЮЗ) 4000 м    9/4 600 м кучево-дожд., верхняя 
[Cb cap|Ci fib]
+16.9 +12.7 76 +23  1008.7  0.5  733  275           
18 14.09.12 тихо ()   4000 м  {ливн. осадки}  8/3 600 м кучево-дожд., верхняя 
[Cb cap|Ci fib]
+13.1 +11.8 92 +17  1009.3  0.1  733  279           
21 14.09.12 тихо ()   4000 м    4/0 верхняя 
[Ci fib]
+10.6 +9.7 94 +12  1009.2  -0.4  732  282           
00 15.09.12 тихо ()   >10 км    3/0 верхняя 
[Ci fib]
+9.1 +8.6 97 +9  1009.3  -0.1  732  284  +9.1    0.0     
03 15.09.12 060 (СВ) >10 км    9/5 600 м кучево-дожд., средняя, верхняя 
[Cb cap|Ac trans|Ci fib]
+15.2 +11.5 79 +21  1008  -0.5  732  277  +8.8         
06 15.09.12 100 (В) >10 км    9/3 600 м кучево-дожд., средняя, верхняя 
[Cb cap|Ac trans|Ci fib]
+21.5 +12.9 58 +27  1005.3  -2  730  270           
09 15.09.12 170 (Ю) >10 км    9/4 600 м кучево-дожд., средняя, верхняя 
[Cb cap|Ac trans|Ci fib]
+24.3 +8.5 37 +24  1003  -1.9  729  268           
12 15.09.12 тихо ()   >10 км    9/4 600 м кучево-дожд., средняя, верхняя 
[Cb cap|Ac trans|Ci fib]
+18.3 +12.2 68 +23  1003.1  -0.5  729  273    +24.7       
15 15.09.12 290 (З) 4000 м    8/8 2000 м средняя 
[Ac trans]
+15.8 +8.8 63 +16  1005.5  730  277           
18 15.09.12 270 (З) 1{10}  н/о  ливневой дождь  10/10 600 м кучево-дожд. 
[Cb cap]
+10.2 +6.8 79 +11  1010.3  733  284           
21 15.09.12 230 (ЮЗ) 4000 м  слаб. ливневой дождь  10/10 600 м кучево-дожд. 
[Cb cap]
+8.2 +6.7 90 +8  1012.8  2.1  735  286           
00 16.09.12 210 (ЮЗ) >10 км  {ливн. осадки}  10/10 600 м кучево-дожд. 
[Cb cap]
+8 +6.2 88 +8  1013.6  0.8  735  287  +8       
03 16.09.12 290 (З) >10 км    10/4 600 м кучево-дожд., средняя 
[Cb cap|As trans]
+9.2 +6.7 84 +10  1014  0.6  736  286  +7.5         
06 16.09.12 220 (ЮЗ) >10 км    9/9 600 м кучево-дожд. 
[Cb cap]
+11.4 +4 60 +11  1014.1  0.3  736  284           
12 16.09.12 220 (ЮЗ) >10 км  {ливн. осадки}  8/4 600 м кучево-дожд., средняя, верхняя 
[Cb cap|Ac trans|Ci ing]
+8.4 +5.5 82 +8  1016  0.8  737  287    +13.5  0.7     
15 16.09.12 230 (ЮЗ) 4000 м    8/8 600 м кучево-дожд. 
[Cb cap]
+9.2 +3.8 69 +9  1016  0.2  737  287           
18 16.09.12 240 (ЮЗ) 4000 м    6/6 600 м кучево-дожд. 
[Cb cap]
+7.9 +3.8 75 +8  1015.1  -1.1  736  288           
21 16.09.12 230 (ЮЗ) 4000 м    8/8 600 м кучево-дожд. 
[Cb cap]
+6.2 +3.8 85 +7  1014.6  -0.6  736  289           
00 17.09.12 240 (ЮЗ) >10 км    10/10 600 м кучево-дожд. 
[Cb cap]
+5 +4.1 94 +6  1013.4  -1.3  735  290  +4.4         
03 17.09.12 120 (ЮВ) >10 км  слаб. ливневой дождь  10/10 600 м кучево-дожд. 
[Cb cap]
+6.4 +5.5 94 +7  1012.3  -1  734  288           
06 17.09.12 050 (СВ) >10 км  слаб. ливневой дождь  10/10 600 м кучево-дожд. 
[Cb cap]
+7.5 +6.5 93 +8  1010.1  -1.9  733  286           
09 17.09.12 210 (ЮЗ) >10 км  в посл. час ливневой дождь  10/10 600 м кучево-дожд. 
[Cb cap]
+8.7 +6.8 88 +10  1009.4  -0.5  732  285           
12 17.09.12 190 (Ю) >10 км  в посл. час ливневой дождь  10/10 600 м кучево-дожд. 
[Cb cap]
+8.2 +7.1 93 +9  1010.6  733  286    +9.4     
15 17.09.12 260 (З) 4000 м  в посл. час ливневой дождь  8/8 600 м кучево-дожд. 
[Cb cap]
+7.8 +6.7 93 +8  1012  1.3  734  286           
18 17.09.12 240 (ЮЗ) 4000 м  {ливн. осадки}  9/6 600 м кучево-дожд., верхняя 
[Cb cap|Ci fib]
+7.4 +5.6 88 +7  1013.6  1.5  735  287           
21 17.09.12 230 (ЮЗ) 4000 м    8/5 600 м кучево-дожд., средняя 
[Cb cap|Ac lent]
+6.6 +4.8 88 +6  1013.9  0.3  735  289           
00 18.09.12 240 (ЮЗ) >10 км  слаб. ливневой дождь  9/9 600 м кучево-дожд. 
[Cb cap]
+7 +5 87 +6  1014  0.1  735  288  +5.9    0.0     
03 18.09.12 210 (ЮЗ) >10 км  {ливн. осадки}  10/10 600 м кучево-дожд. 
[Cb cap]
+8.4 +5.3 81 +8  1013.6  -0.3  728  284           
06 18.09.12 200 (Ю) >10 км  {ливн. осадки}  9/5 600 м кучево-дожд., средняя 
[Cb cap|Ac trans]
+12.3 +5.5 63 +12  1011.8  -1.3  734  282           
09 18.09.12 240 (ЮЗ) >10 км  в посл. час ливневой дождь  9/8 600 м кучево-дожд., средняя 
[Cb cap|Ac trans]
+12.3 +3.8 56 +12  1011  -0.7  734  282           
12 18.09.12 тихо ()   >10 км  {ливн. осадки}  9/8 600 м кучево-дожд., средняя 
[Cb cap|Ac trans]
+11 +6.8 75 +11  1010.8  -0.3  734  283    +13.4  0.0     
15 18.09.12 тихо ()   4000 м    10/10 600 м кучево-дожд. 
[Cb cap]
+9.4 +7.6 89 +9  1010.1  -0.8  733  284           
18 18.09.12 тихо ()   4000 м    9/8 600 м кучево-дожд., средняя 
[Cb cap|Ac trans]
+9.8 +8.1 89 +10  1009.5  -0.6  732  283           
21 18.09.12 тихо ()   4000 м    9/8 600 м кучево-дожд., верхняя 
[Cb cap|Ci fib]
+9.3 +8.1 92 +9  1009.1  -0.4  732  284           
00 19.09.12 тихо ()   >10 км    10/10 600 м кучево-дожд. 
[Cb cap]
+9.8 +8.5 92 +10  1008.7  -0.4  732  283  +9         
03 19.09.12 тихо ()   >10 км  слаб. ливневой дождь  10/10 600 м кучево-дожд. 
[Cb cap]
+10.8 +9.4 91 +12  1008.5  -0.1  732  282           
06 19.09.12 100 (В) 2000 м  ливневой дождь  10/10 600 м кучево-дожд. 
[Cb cap]
+11.8 +11 95 +16  1007.6  -0.7  731  280           
09 19.09.12 090 (В) >10 км  слаб. ливневой дождь  10/10 600 м кучево-дожд. 
[Cb cap]
+13.6 +12.1 91 +20  1006.4  -1  731  278           
12 19.09.12 100 (В) >10 км  {ливн. осадки}  10/10 600 м кучево-дожд. 
[Cb cap]
+12.6 +10.6 88 +16  1006.9  0.4  731  279    +13.9     
15 19.09.12 080 (В) 4000 м    9/4 600 м кучево-дожд., средняя 
[Cb cap|Ac trans]
+11.7 +10.4 92 +15  1006.8  -0.2  731  280           
18 19.09.12 тихо ()   4000 м    10/10 600 м кучево-дожд. 
[Cb cap]
+9.9 +9.5 97 +11  1006.8  -0.2  731  282           
21 19.09.12 тихо ()   4000 м    9/6 600 м кучево-дожд., средняя 
[Cb cap|Ac trans]
+9.4 +9 97 +10  1006.1  -0.7  730  283           
00 20.09.12 тихо ()   4000 м    10/10 300 м кучево-дожд. 
[Cb cap]
+10.2 +9.8 97 +12  1005.6  -0.4  730  282  +9       
03 20.09.12 тихо ()   0500 м  туман{ливн. осадки}  ?/?  
+11.6 +11 96 +15  1006.4  0.9  730  280           
06 20.09.12 100 (В) >10 км  {ливн. осадки, туман}  9/6 600 м кучево-дожд., средняя 
[Cb cap|Ac trans]
+15.1 +11.4 79 +20  1006.3  0.4  731  277           
09 20.09.12 180 (Ю) >10 км    9/6 600 м кучево-дожд., средняя, верхняя 
[Cb cap|Ac lent|Ci fib]
+16.1 +11.4 74 +21  1006.7  0.5  731  276           
12 20.09.12 220 (ЮЗ) >10 км    10/10 600 м кучево-дожд. 
[Cb cap]
+14.2 +11.8 85 +19  1008.4  1.4  732  278    +17.1  0.8     
15 20.09.12 280 (З) 4000 м  {ливн. осадки}  10/10 600 м кучево-дожд. 
[Cb cap]
+12.3 +10.2 87 +16  1010.7  734  281           
18 20.09.12 300 (СЗ) 4000 м  {ливн. осадки}  10/10 600 м кучево-дожд. 
[Cb cap]
+9.8 +5.9 77 +11  1012.7  1.6  735  285           
21 20.09.12 260 (З) 4000 м  слаб. ливневой дождь  10/10 600 м кучево-дожд. 
[Cb cap]
+8.8 +4 72 +10  1013.7  0.9  735  286           
00 21.09.12 260 (З) >10 км  {ливн. осадки}  10/10 600 м кучево-дожд. 
[Cb cap]
+8.2 +4.6 78 +9  1014.5  0.6  736  287  +8.2    0.0     
03 21.09.12 350 (С) >10 км    9/6 600 м кучево-дожд., средняя 
[Cb cap|Ac trans]
+9.6 +4.5 71 +11  1014.8  0.5  736  286           
06 21.09.12 030 (СВ) >10 км    9/5 600 м кучево-дожд., верхняя 
[Cb cap|Ci fib]
+12.6 +4 56 +14  1014.6  0.1  736  283           
09 21.09.12 030 (СВ) >10 км    9/8 600 м кучево-дожд., средняя, верхняя 
[Cb cap|Ac trans|Ci fib]
+13.5 +4.3 54 +15  1014.4  -0.2  736  282           
12 21.09.12 240 (ЮЗ) >10 км    9/6 600 м кучево-дожд., средняя, верхняя 
[Cb cap|Ac trans|Ci fib]
+10.6 +6.1 74 +12  1015.2  0.6  737  285    +14.8       
15 21.09.12 250 (З) 4000 м    6/3 600 м кучево-дожд., средняя, верхняя 
[Cb cap|Ac trans|Ci fib]
+7.1 +5.5 90 +8  1016.5  0.8  737  289           
18 21.09.12 тихо ()   4000 м  слаб. ливневой дождь  10/10 600 м кучево-дожд. 
[Cb cap]
+7.2 +6.4 95 +7  1016.8  0.3  737  288           
21 21.09.12 тихо ()   4000 м  слаб. ливневой дождь  10/10 600 м кучево-дожд. 
[Cb cap]
+8.1 +7.3 95 +8  1016.6  -0.1  737  287           
00 22.09.12 тихо ()   0500 м  слаб. ливневой дождь  10/10 600 м кучево-дожд. 
[Cb cap]
+7.9 +7.3 96 +8  1016.7  0.1  737  288  +5.7    0.3     
03 22.09.12 тихо ()   0500 м  ливневой дождь{туман}  10/10 300 м кучево-дожд. 
[Cb cap]
+8.1 +7.8 98 +8  1016.9  0.2  738  287           
06 22.09.12 тихо ()   4000 м    10/10 300 м кучево-дожд. 
[Cb cap]
+8.3 +8.3 100 +8  1017.4  0.7  738  287           
09 22.09.12 тихо ()   >10 км  {ливн. осадки}  10/10 600 м кучево-дожд. 
[Cb cap]
+9 +8.4 96 +9  1017.8  0.3  738  287           
12 22.09.12 230 (ЮЗ) >10 км  {ливн. осадки}  6/3 600 м кучево-дожд., верхняя 
[Cb cap|Ci fib]
+7.8 +6.5 91 +9  1018.3  0.3  739  288    +9.5  14     
15 22.09.12 260 (З) 4000 м    8/3 600 м кучево-дожд., верхняя 
[Cb cap|Ci fib]
+4.8 +4.3 97 +6  1019  0.4  739  292           
18 22.09.12 тихо ()   4000 м    6/3 600 м кучево-дожд., верхняя 
[Cb cap|Ci fib]
+2.8 +2.5 98 +3  1019  -0.3  739  294           
21 22.09.12 020 (С) н/о  дымка  9/8 600 м кучево-дожд., средняя, верхняя 
[Cb cap|Ac trans|Ci fib]
+4.4 +4.2 99 +5  1018.7  -0.1  739  292           
00 23.09.12 тихо ()   0500 м  туман  ?/?  
+3.4 +3.4 100 +3  1018.7  -0.2  738  293  +2.7         
03 23.09.12 тихо ()   0500 м  туман  ?/?  
+5.1 +5.1 100 +5  1018.4  738  291           
06 23.09.12 тихо ()   2000 м  дымка{туман}  10/10 600 м кучево-дожд. 
[Cb cap]
+8.3 +7.8 97 +8  1017.4  -0.4  738  287           
09 23.09.12 180 (Ю) >10 км  в посл. час ливневой дождь  8/8 600 м кучево-дожд. 
[Cb cap]
+10.1 +8 87 +11  1017  -0.3  738  285           
12 23.09.12 250 (З) >10 км  {ливн. осадки}  6/6 600 м кучево-дожд. 
[Cb cap]
+8.3 +7 91 +9  1017.5  0.2  738  287    +11.3  0.0     
15 23.09.12 200 (Ю) 4000 м    9/3 600 м кучево-дожд., средняя 
[Cb cap|Ac trans]
+6.1 +5.4 95 +7  1017.9  0.2  738  290           
18 23.09.12 230 (ЮЗ) 4000 м    9/8 600 м кучево-дожд., средняя 
[Cb cap|Ac trans]
+7.9 +5.9 87 +7  1017.3  -0.4  738  288           
21 23.09.12 220 (ЮЗ) 4000 м    10/10 600 м кучево-дожд. 
[Cb cap]
+7.4 +5.5 88 +7  1017.5  0.1  738  289           
00 24.09.12 250 (З) >10 км    9/5 600 м кучево-дожд., средняя 
[Cb cap|Ac trans]
+7.3 +4.3 81 +7  1017.2  -0.3  738  289  +5.3         
03 24.09.12 260 (З) >10 км    9/6 600 м кучево-дожд., средняя 
[Cb cap|Ac trans]
+8.7 +4.5 75 +9  1017.3  0.4  738  287           
06 24.09.12 260 (З) >10 км  слаб. ливневой дождь  10/10 600 м кучево-дожд. 
[Cb cap]
+9.8 +6.4 79 +10  1016.2  -1  737  286           
09 24.09.12 240 (ЮЗ) >10 км  в посл. час ливневой дождь  8/5 600 м кучево-дожд., средняя 
[Cb cap|Ac trans]
+11.2 +5.3 67 +11  1015.4  -0.7  737  284           
12 24.09.12 210 (ЮЗ) >10 км  {ливн. осадки}  9/6 600 м кучево-дожд., верхняя 
[Cb cap|Ci fib]
+6.9 +4.6 85 +6  1015.4  -0.5  736  289    +11.3     
15 24.09.12 240 (ЮЗ) 4000 м  слаб. ливневой дождь  9/8 600 м кучево-дожд., верхняя 
[Cb cap|Ci fib]
+7.1 +4.6 84 +7  1014.8  -0.5  736  288           
18 24.09.12 230 (ЮЗ) 4000 м  слаб. ливневой дождь  10/10 600 м кучево-дожд. 
[Cb cap]
+6.9 +5.6 91 +7  1013.8  -1  735  288           
21 24.09.12 290 (З) 4000 м  слаб. ливневой дождь  10/10 600 м кучево-дожд. 
[Cb cap]
+6.7 +4.6 86 +8  1014.4  0.6  736  289           
00 25.09.12 270 (З) >10 км  в посл. час ливневой дождь  10/10 600 м кучево-дожд. 
[Cb cap]
+4.9 +3.2 89 +5  1017.3  2.6  738  291  +4.8    0.7     
06 25.09.12 280 (З) >10 км  слаб. ливневой дождь  9/8 600 м кучево-дожд., средняя 
[Cb cap|Ac trans]
+7.4 +1.5 66 +7  1019.6  740  290           
09 25.09.12 270 (З) >10 км  в посл. час ливневой дождь  9/8 600 м кучево-дожд., средняя 
[Cb cap|Ac trans]
+8.2 +2.5 67 +8  1020.6  1.1  740  289           
12 25.09.12 260 (З) >10 км  {ливн. осадки}  9/6 600 м кучево-дожд., средняя, верхняя 
[Cb cap|Ac trans|Ci fib]
+5.6 +0.7 71 +5  1022.4  1.4  741  293    +8.6  0.4     
15 25.09.12 240 (ЮЗ) 4000 м    8/4 600 м кучево-дожд., средняя, верхняя 
[Cb cap|Ac trans|Ci fib]
+4.9 +1.6 79 +5  1024.3  1.9  743  294           
18 25.09.12 240 (ЮЗ) 4000 м    9/6 600 м кучево-дожд., средняя 
[Cb cap|Ac trans]
+5.3 +1.8 78 +4  1025  0.6  743  293           
21 25.09.12 240 (ЮЗ) 4000 м    10/10 600 м кучево-дожд. 
[Cb cap]
+5.4 +2.5 82 +4  1026  744  294           
00 26.09.12 230 (ЮЗ) >10 км  слаб. ливневой дождь  10/10 600 м кучево-дожд. 
[Cb cap]
+5.1 +3.4 89 +5  1026.2  0.2  744  294  +4.5    0.3     
06 26.09.12 200 (Ю) >10 км  в посл. час ливневой дождь  9/8 600 м кучево-дожд., средняя 
[Cb cap|Ac trans]
+9.4 +4.6 72 +9  1026.2  -0.1  745  289           
09 26.09.12 230 (ЮЗ) >10 км    8/4 600 м кучево-дожд., верхняя 
[Cb cap|Ci fib]
+11.8 +4 59 +12  1024.7  -1.2  744  287           
12 26.09.12 230 (ЮЗ) >10 км    8/0 верхняя 
[Ci fib]
+10.7 +1.1 51 +10  1022.8  -1.9  742  288    +12.2  0.3     
15 26.09.12 210 (ЮЗ) 5{10}  4000 м    4/0 верхняя 
[Ci fib]
+9.7 +1.3 56 +8  1021.9  -1  741  288           
18 26.09.12 220 (ЮЗ) 5{11}  4000 м    3/0 верхняя 
[Ci fib]
+8.8 +0.2 55 +7  1021.2  -1  741  289           
21 26.09.12 220 (ЮЗ) 3{10}  4000 м    ясно 
+8 +0.4 59 +7  1020.1  -1  740  290           
00 27.09.12 230 (ЮЗ) >10 км    3/0 верхняя 
[Ci fib]
+7.9 +0.6 60 +8  1019  -1.1  739  289  +5.7         
03 27.09.12 230 (ЮЗ) 5{11}  >10 км    ясно 
+12 +0.2 44 +11  1017  -1.4  738  285           
06 27.09.12 230 (ЮЗ) 4{13}  >10 км    ясно 
+16.9 +1.7 36 +17  1014.7  -1.7  737  279           
09 27.09.12 250 (З) >10 км    3/0 верхняя 
[Ci fib]
+19.5 +3 33 +20  1013.2  -1.2  736  276           
12 27.09.12 220 (ЮЗ) >10 км    8/3 600 м кучево-дожд., средняя, верхняя 
[Cb cap|Ac trans|Ci fib]
+16.3 +2.7 40 +17  1012.5  -1  735  279    +19.6       
15 27.09.12 210 (ЮЗ) 4000 м    9/8 2000 м средняя, верхняя 
[Ac trans|Ci fib]
+15.1 +3.4 45 +16  1012.4  -0.2  735  280           
18 27.09.12 220 (ЮЗ) 4000 м    9/4 2000 м средняя, верхняя 
[Ac trans|Ci fib]
+14.5 +3.8 49 +15  1012.3  -0.3  735  281           
21 27.09.12 270 (З) 4000 м    9/5 600 м кучево-дожд., средняя, верхняя 
[Cb cap|Ac trans|Ci fib]
+11.9 +5.5 65 +13  1013  0.5  735  283           
00 28.09.12 240 (ЮЗ) >10 км  слаб. ливневой дождь  10/10 600 м кучево-дожд. 
[Cb cap]
+9.7 +6.7 82 +11  1013.2  735  285  +9.7    0.0     
06 28.09.12 230 (ЮЗ) >10 км  {ливн. осадки}  9/6 600 м кучево-дожд., верхняя 
[Cb cap|Cc]
+15.7 +6.2 53 +16  1012.3  -0.3  735  279           
12 28.09.12 230 (ЮЗ) >10 км  слаб. ливневой дождь  10/10 600 м кучево-дожд. 
[Cb cap]
+13.7 +7.4 66 +15  1012.1  0.2  735  281    +18.3  0.3     
15 28.09.12 260 (З) 4000 м  слаб. ливневой дождь  9/8 600 м кучево-дожд., средняя 
[Cb cap|Ac trans]
+11.7 +6.8 72 +13  1013.3  735  283           
18 28.09.12 260 (З) 4000 м  {ливн. осадки}  9/4 600 м кучево-дожд., средняя, верхняя 
[Cb cap|Ac trans|Ci fib]
+10.1 +2.7 60 +10  1014.8  1.2  736  286           
21 28.09.12 240 (ЮЗ) 4000 м    6/4 600 м кучево-дожд., средняя 
[Cb cap|Ac trans]
+7.3 +3 74 +7  1016.5  1.3  737  289           
00 29.09.12 240 (ЮЗ) >10 км    10/10 600 м кучево-дожд. 
[Cb cap]
+8.2 +4.6 78 +7  1016.9  0.5  738  288  +7    0.3     
06 29.09.12 250 (З) >10 км  {ливн. осадки}  9/8 600 м кучево-дожд., средняя 
[Cb cap|Ac trans]
+11.5 +4.6 63 +11  1018.3  0.6  739  285           
09 29.09.12 280 (З) >10 км  в посл. час ливневой дождь  9/6 600 м кучево-дожд., средняя 
[Cb cap|Ac trans]
+9.5 +6.1 79 +11  1019.4  0.9  740  287           
12 29.09.12 280 (З) >10 км  {ливн. осадки}  10/10 600 м кучево-дожд. 
[Cb cap]
+7.7 +6.2 90 +9  1021.5  1.7  741  289    +13     
15 29.09.12 260 (З) 4000 м    10/10 600 м кучево-дожд. 
[Cb cap]
+7.2 +5 86 +8  1024  2.4  743  291           
18 29.09.12 280 (З) 4000 м    9/9 600 м кучево-дожд. 
[Cb cap]
+6.8 +4.5 85 +8  1024.8  0.7  743  291           
21 29.09.12 250 (З) 4000 м    9/9 600 м кучево-дожд. 
[Cb cap]
+6.2 +4.6 90 +6  1025.5  0.6  744  292           
00 30.09.12 220 (ЮЗ) >10 км    9/9 600 м кучево-дожд. 
[Cb cap]
+6.2 +4.1 86 +6  1026.1  0.6  744  293  +5.3         
03 30.09.12 240 (ЮЗ) >10 км    9/9 600 м кучево-дожд. 
[Cb cap]
+7.9 +4.8 81 +9  1026.5  0.6  745  291           
06 30.09.12 230 (ЮЗ) >10 км    10/10 600 м кучево-дожд. 
[Cb cap]
+9.2 +2.7 64 +10  1026.1  -0.1  744  290           
09 30.09.12 190 (Ю) >10 км    9/9 600 м кучево-дожд. 
[Cb cap]
+10 +3 62 +11  1024.6  -1.4  743  288           
12 30.09.12 220 (ЮЗ) >10 км    9/3 600 м средняя, верхняя 
[Ac trans|Ci fib]
+6.7 +2.9 77 +8  1024.6  -0.4  743  292    +10.2  0.0     
15 30.09.12 220 (ЮЗ) 4000 м    4/3 2000 м средняя, верхняя 
[Ac trans|Ci fib]
+3 +2 93 +4  1024.2  -0.8  743  296           
18 30.09.12 тихо ()   4000 м    3/0 верхняя 
[Ci fib]
+1.2 +0.9 98 +1  1023.6  -0.8  742  297           
21 30.09.12 230 (ЮЗ) 4000 м    6/3 2000 м средняя, верхняя 
[Ac trans|Ci fib]
+0 -0.3 98 +1  1023.2  -0.6  741  299           
00 01.10.12 тихо ()   2000 м  дымка{туман}  8/5 2000 м средняя, верхняя 
[Ac trans|Ci fib]
-1.6 -1.6 100 -2  1022.9  -0.5  741  301  -1.6         
06 01.10.12 260 (З) >10 км  {ливн. осадки}  9/3 2000 м средняя, верхняя 
[Ac trans|Ci fib]
+13.8 +2.5 46 +14  1019.7  -1.4  740  283           
09 01.10.12 230 (ЮЗ) >10 км    9/0 верхняя 
[Ci fib]
+15.9 +3.6 44 +17  1018.4  -1  739  281           
12 01.10.12 230 (ЮЗ) >10 км    9/3 600 м кучево-дожд., средняя, верхняя 
[Cb cap|Ac trans|Ci fib]
+11.2 +1.7 52 +11  1018.9  -0.1  739  286    +16.2       
15 01.10.12 220 (ЮЗ) 4000 м    3/0 верхняя 
[Ci fib]
+8.9 +2.3 63 +10  1019.4  0.3  740  288           
18 01.10.12 220 (ЮЗ) 4000 м    8/0 верхняя 
[Ci fib]
+8.3 +2.1 65 +8  1019.8  0.2  740  289           
21 01.10.12 220 (ЮЗ) 4000 м    8/0 верхняя 
[Ci fib]
+6.6 +2.5 75 +8  1019.9  -0.1  740  291           
00 02.10.12 тихо ()   >10 км  слаб. ливневой дождь  9/8 600 м кучево-дожд., средняя 
[Cb cap|Ac trans]
+4.7 +2.2 84 +5  1021.2  1.1  740  293  +3.5    0.0     
03 02.10.12 230 (ЮЗ) >10 км  слаб. ливневой дождь  10/8 600 м кучево-дожд., средняя 
[Cb cap|Ac As]
+8 +4.3 77 +9  1021.4  0.5  741  289           
06 02.10.12 270 (З) >10 км  {ливн. осадки}  10/6 600 м кучево-дожд., средняя 
[Cb cap|Ac As]
+11 +4.8 66 +12  1020.5  -0.4  741  286           
09 02.10.12 350 (С) >10 км    10/5 600 м кучево-дожд., средняя 
[Cb cap|Ac As]
+9.7 +6.1 78 +11  1021  0.3  741  287           
12 02.10.12 тихо ()   10 км  {ливн. осадки}  10/10 600 м кучево-дожд. 
[Cb cap]
+9 +6.7 86 +9  1021.1  741  288    +11.9  0.5     
15 02.10.12 тихо ()   н/о  слаб. ливневой дождь  10/10 600 м кучево-дожд. 
[Cb cap]
+8.3 +7.4 94 +8  1021.2  741  288           
18 02.10.12 тихо ()   н/о  слаб. ливневой дождь  10/10 600 м кучево-дожд. 
[Cb cap]
+8.6 +7.7 94 +9  1020.5  -0.5  740  288           
21 02.10.12 тихо ()   н/о  слаб. ливневой дождь  10/10 600 м кучево-дожд. 
[Cb cap]
+8.2 +7.4 95 +8  1019.9  -0.8  740  288           
00 03.10.12 120 (ЮВ) 2000 м  ливневой дождь  10/10 600 м кучево-дожд. 
[Cb cap]
+7.6 +7 96 +9  1020  0.1  740  289  +7.4    0.5     
06 03.10.12 250 (З) >10 км  {ливн. осадки}  10/10 600 м кучево-дожд. 
[Cb cap]
+13.5 +8.2 70 +15  1018.9  -0.4  740  283           
Время (UTC), дата Ветер
(°,м/с) 
Видим.   Явления Облачность Т
(°С)
Тd
(°С)
f(%) Тe
(°С)
Pmin
(гПа)
dP
(гПа)
Po
(мм)
O2
(г/м3)
Тmin Tmax R s Состояние
почвы